Time,TemperatureF,DewpointF,PressureIn,WindDirection,WindDirectionDegrees,WindSpeedMPH,WindSpeedGustMPH,Humidity,HourlyPrecipIn,Conditions,Clouds,dailyrainin,SoftwareType,DateUTC
2013-03-25 12:15:00,49.6,39.8,29.61,WNW,286,15.0,24.0,69,0.00,,,0.00,Wunderground v.1.15,2013-03-25 16:15:00,
2013-03-25 12:20:00,49.7,39.6,29.61,NW,321,14.0,14.0,68,0.00,,,0.00,Wunderground v.1.15,2013-03-25 16:20:00,
2013-03-25 12:25:00,49.9,40.1,29.62,NNW,334,11.0,26.0,69,0.00,,,0.00,Wunderground v.1.15,2013-03-25 16:25:00,
2013-03-25 12:30:00,49.9,39.8,29.61,NNE,19,11.0,11.0,68,0.00,,,0.00,Wunderground v.1.15,2013-03-25 16:30:00,
2013-03-25 12:35:00,50.3,39.4,29.61,NW,307,11.0,26.0,66,0.00,,,0.00,Wunderground v.1.15,2013-03-25 16:35:00,
2013-03-25 12:40:00,50.7,40.1,29.61,WNW,297,11.0,11.0,67,0.00,,,0.00,Wunderground v.1.15,2013-03-25 16:40:00,
2013-03-25 12:45:00,51.2,40.2,29.61,NW,323,11.0,26.0,66,0.00,,,0.00,Wunderground v.1.15,2013-03-25 16:45:00,
2013-03-25 12:50:00,51.3,39.9,29.61,WNW,301,11.0,11.0,65,0.00,,,0.00,Wunderground v.1.15,2013-03-25 16:50:00,
2013-03-25 12:55:00,51.4,40.4,29.61,NW,309,10.0,26.0,66,0.00,,,0.00,Wunderground v.1.15,2013-03-25 16:55:00,
2013-03-25 13:00:00,50.5,38.8,29.61,North,5,12.0,28.0,64,0.00,,,0.00,Wunderground v.1.15,2013-03-25 17:00:00,
2013-03-25 13:05:00,50.1,38.4,29.61,NNW,342,13.0,28.0,64,0.00,,,0.00,Wunderground v.1.15,2013-03-25 17:05:00,
2013-03-25 13:10:00,50.2,38.5,29.61,WNW,293,13.0,28.0,64,0.00,,,0.00,Wunderground v.1.15,2013-03-25 17:10:00,
2013-03-25 13:15:00,50.3,38.6,29.61,WNW,300,11.0,28.0,64,0.00,,,0.00,Wunderground v.1.15,2013-03-25 17:15:00,
2013-03-25 13:20:00,50.3,38.2,29.61,NW,309,12.0,12.0,63,0.00,,,0.00,Wunderground v.1.15,2013-03-25 17:20:00,
2013-03-25 13:25:00,51.0,39.2,29.61,NNW,330,13.0,16.0,64,0.00,,,0.00,Wunderground v.1.15,2013-03-25 17:25:00,
2013-03-25 13:30:00,51.1,38.1,29.61,NNW,330,11.0,11.0,61,0.00,,,0.00,Wunderground v.1.15,2013-03-25 17:30:00,
2013-03-25 13:35:00,51.2,38.6,29.61,West,281,11.0,22.0,62,0.00,,,0.00,Wunderground v.1.15,2013-03-25 17:35:00,
2013-03-25 13:40:00,50.8,37.4,29.61,WNW,291,13.0,28.0,60,0.00,,,0.00,Wunderground v.1.15,2013-03-25 17:40:00,
2013-03-25 13:45:00,50.6,37.2,29.61,WNW,301,16.0,28.0,60,0.00,,,0.00,Wunderground v.1.15,2013-03-25 17:45:00,
2013-03-25 13:50:00,50.8,37.0,29.61,WNW,297,17.0,17.0,59,0.00,,,0.00,Wunderground v.1.15,2013-03-25 17:50:00,
2013-03-25 13:55:00,50.7,36.9,29.61,NW,315,17.0,28.0,59,0.00,,,0.00,Wunderground v.1.15,2013-03-25 17:55:00,
2013-03-25 14:00:00,50.6,37.2,29.61,NW,309,16.0,16.0,60,0.00,,,0.00,Wunderground v.1.15,2013-03-25 18:00:00,
2013-03-25 14:05:00,50.6,37.2,29.61,WNW,291,14.0,27.0,60,0.00,,,0.00,Wunderground v.1.15,2013-03-25 18:05:00,
2013-03-25 14:10:00,50.6,38.1,29.61,WNW,300,13.0,27.0,62,0.00,,,0.00,Wunderground v.1.15,2013-03-25 18:10:00,
2013-03-25 14:15:00,50.4,37.9,29.61,WNW,300,12.0,27.0,62,0.00,,,0.00,Wunderground v.1.15,2013-03-25 18:15:00,
2013-03-25 14:25:00,50.0,37.9,29.61,NNW,342,11.0,11.0,63,0.00,,,0.00,Wunderground v.1.15,2013-03-25 18:25:00,
2013-03-25 14:30:00,50.0,38.7,29.61,NE,56,11.0,11.0,65,0.00,,,0.00,Wunderground v.1.15,2013-03-25 18:30:00,
2013-03-25 14:35:00,49.9,37.8,29.61,NW,319,10.0,27.0,63,0.00,,,0.00,Wunderground v.1.15,2013-03-25 18:35:00,
2013-03-25 14:40:00,49.9,38.6,29.61,NW,311,9.0,27.0,65,0.00,,,0.00,Wunderground v.1.15,2013-03-25 18:40:00,
2013-03-25 14:45:00,50.0,37.5,29.61,NNE,27,9.0,27.0,62,0.00,,,0.00,Wunderground v.1.15,2013-03-25 18:45:00,
2013-03-25 14:50:00,50.1,37.2,29.61,WNW,291,12.0,27.0,61,0.00,,,0.00,Wunderground v.1.15,2013-03-25 18:50:00,
2013-03-25 14:55:00,49.9,38.6,29.61,NNW,331,11.0,27.0,65,0.00,,,0.00,Wunderground v.1.15,2013-03-25 18:55:00,
2013-03-25 15:00:00,49.4,38.9,29.61,NNW,346,10.0,10.0,67,0.00,,,0.00,Wunderground v.1.15,2013-03-25 19:00:00,
2013-03-25 15:10:00,49.0,39.3,29.61,NNW,336,9.0,9.0,69,0.00,,,0.00,Wunderground v.1.15,2013-03-25 19:10:00,
2013-03-25 15:15:00,49.1,39.0,29.62,NW,315,8.0,22.0,68,0.00,,,0.00,Wunderground v.1.15,2013-03-25 19:15:00,
2013-03-25 15:20:00,49.3,39.9,29.61,WNW,288,7.0,7.0,70,0.00,,,0.00,Wunderground v.1.15,2013-03-25 19:20:00,
2013-03-25 15:25:00,49.5,38.2,29.61,WNW,302,7.0,22.0,65,0.00,,,0.00,Wunderground v.1.15,2013-03-25 19:25:00,
2013-03-25 15:30:00,50.1,38.4,29.61,NW,323,8.0,22.0,64,0.00,,,0.00,Wunderground v.1.15,2013-03-25 19:30:00,
2013-03-25 15:35:00,50.8,35.7,29.61,SW,226,11.0,22.0,56,0.00,,,0.00,Wunderground v.1.15,2013-03-25 19:35:00,
2013-03-25 15:40:00,50.4,35.7,29.61,NW,309,13.0,22.0,57,0.00,,,0.00,Wunderground v.1.15,2013-03-25 19:40:00,
2013-03-25 15:45:00,50.7,35.1,29.61,NNE,15,14.0,22.0,55,0.00,,,0.00,Wunderground v.1.15,2013-03-25 19:45:00,
2013-03-25 15:50:00,51.3,35.2,29.61,West,261,13.0,13.0,54,0.00,,,0.00,Wunderground v.1.15,2013-03-25 19:50:00,
2013-03-25 15:55:00,51.7,34.6,29.61,WNW,297,13.0,22.0,52,0.00,,,0.00,Wunderground v.1.15,2013-03-25 19:55:00,
2013-03-25 16:00:00,50.9,34.4,29.61,West,276,15.0,15.0,53,0.00,,,0.00,Wunderground v.1.15,2013-03-25 20:00:00,
2013-03-25 16:05:00,50.7,34.2,29.61,West,276,15.0,22.0,53,0.00,,,0.00,Wunderground v.1.15,2013-03-25 20:05:00,
2013-03-25 16:10:00,50.9,34.4,29.61,NE,34,13.0,13.0,53,0.00,,,0.00,Wunderground v.1.15,2013-03-25 20:10:00,
2013-03-25 16:15:00,50.9,33.4,29.61,WNW,294,14.0,14.0,51,0.00,,,0.00,Wunderground v.1.15,2013-03-25 20:15:00,
2013-03-25 16:20:00,50.9,33.9,29.61,NW,319,16.0,16.0,52,0.00,,,0.00,Wunderground v.1.15,2013-03-25 20:20:00,
2013-03-25 16:25:00,51.1,34.5,29.61,NW,311,13.0,22.0,53,0.00,,,0.00,Wunderground v.1.15,2013-03-25 20:25:00,
2013-03-25 16:30:00,51.5,34.9,29.61,West,264,12.0,12.0,53,0.00,,,0.00,Wunderground v.1.15,2013-03-25 20:30:00,
2013-03-25 16:35:00,51.0,32.5,29.62,NNW,347,13.0,13.0,49,0.00,,,0.00,Wunderground v.1.15,2013-03-25 20:35:00,
2013-03-25 16:40:00,50.6,32.6,29.62,WNW,303,14.0,22.0,50,0.00,,,0.00,Wunderground v.1.15,2013-03-25 20:40:00,
2013-03-25 16:45:00,50.5,34.5,29.62,North,4,14.0,22.0,54,0.00,,,0.00,Wunderground v.1.15,2013-03-25 20:45:00,
2013-03-25 16:50:00,50.9,33.9,29.62,NW,321,12.0,22.0,52,0.00,,,0.00,Wunderground v.1.15,2013-03-25 20:50:00,
2013-03-25 16:55:00,50.7,33.2,29.62,NW,307,14.0,22.0,51,0.00,,,0.00,Wunderground v.1.15,2013-03-25 20:55:00,
2013-03-25 17:00:00,50.5,31.5,29.63,WNW,293,17.0,28.0,48,0.00,,,0.00,Wunderground v.1.15,2013-03-25 21:00:00,
2013-03-25 17:05:00,50.5,32.0,29.63,NW,309,17.0,28.0,49,0.00,,,0.00,Wunderground v.1.15,2013-03-25 21:05:00,
2013-03-25 17:10:00,50.4,32.4,29.63,NW,309,16.0,28.0,50,0.00,,,0.00,Wunderground v.1.15,2013-03-25 21:10:00,
2013-03-25 17:15:00,50.4,32.9,29.64,NE,36,15.0,28.0,51,0.00,,,0.00,Wunderground v.1.15,2013-03-25 21:15:00,
2013-03-25 17:20:00,50.5,32.5,29.64,NNE,18,12.0,12.0,50,0.00,,,0.00,Wunderground v.1.15,2013-03-25 21:20:00,
2013-03-25 17:25:00,50.3,32.8,29.65,NW,314,10.0,13.0,51,0.00,,,0.00,Wunderground v.1.15,2013-03-25 21:25:00,
2013-03-25 17:30:00,50.2,32.3,29.65,NW,315,10.0,10.0,50,0.00,,,0.00,Wunderground v.1.15,2013-03-25 21:30:00,
2013-03-25 17:35:00,50.0,32.6,29.65,NNW,327,9.0,11.0,51,0.00,,,0.00,Wunderground v.1.15,2013-03-25 21:35:00,
2013-03-25 17:40:00,49.8,31.9,29.65,NNE,18,9.0,28.0,50,0.00,,,0.00,Wunderground v.1.15,2013-03-25 21:40:00,
2013-03-25 17:45:00,49.7,32.8,29.65,WNW,300,9.0,28.0,52,0.00,,,0.00,Wunderground v.1.15,2013-03-25 21:45:00,
2013-03-25 17:50:00,49.5,31.6,29.66,West,276,9.0,28.0,50,0.00,,,0.00,Wunderground v.1.15,2013-03-25 21:50:00,
2013-03-25 17:55:00,49.5,32.1,29.66,NNW,347,10.0,28.0,51,0.00,,,0.00,Wunderground v.1.15,2013-03-25 21:55:00,
2013-03-25 18:00:00,49.4,32.5,29.67,NW,317,9.0,24.0,52,0.00,,,0.00,Wunderground v.1.15,2013-03-25 22:00:00,
2013-03-25 18:05:00,49.4,32.5,29.67,NW,325,9.0,24.0,52,0.00,,,0.00,Wunderground v.1.15,2013-03-25 22:05:00,
2013-03-25 18:10:00,49.4,32.5,29.67,NW,307,7.0,7.0,52,0.00,,,0.00,Wunderground v.1.15,2013-03-25 22:10:00,
2013-03-25 18:15:00,49.2,32.3,29.67,NW,317,7.0,24.0,52,0.00,,,0.00,Wunderground v.1.15,2013-03-25 22:15:00,
2013-03-25 18:20:00,49.2,31.8,29.68,East,82,8.0,8.0,51,0.00,,,0.00,Wunderground v.1.15,2013-03-25 22:20:00,
2013-03-25 18:25:00,49.5,32.6,29.68,NNW,335,8.0,24.0,52,0.00,,,0.00,Wunderground v.1.15,2013-03-25 22:25:00,
2013-03-25 18:30:00,49.3,33.8,29.68,NNW,331,6.0,24.0,55,0.00,,,0.00,Wunderground v.1.15,2013-03-25 22:30:00,
2013-03-25 18:35:00,49.1,33.2,29.69,NW,308,5.0,24.0,54,0.00,,,0.00,Wunderground v.1.15,2013-03-25 22:35:00,
2013-03-25 18:40:00,49.0,32.1,29.69,West,278,6.0,6.0,52,0.00,,,0.00,Wunderground v.1.15,2013-03-25 22:40:00,
2013-03-25 18:45:00,48.9,33.0,29.69,NNW,333,7.0,7.0,54,0.00,,,0.00,Wunderground v.1.15,2013-03-25 22:45:00,
2013-03-25 18:50:00,48.8,31.9,29.70,WNW,297,6.0,24.0,52,0.00,,,0.00,Wunderground v.1.15,2013-03-25 22:50:00,
2013-03-25 18:55:00,48.7,31.8,29.70,WNW,297,7.0,24.0,52,0.00,,,0.00,Wunderground v.1.15,2013-03-25 22:55:00,
2013-03-25 19:00:00,48.6,32.7,29.70,NW,305,6.0,6.0,54,0.00,,,0.00,Wunderground v.1.15,2013-03-25 23:00:00,
2013-03-25 19:05:00,48.5,32.1,29.71,NNW,341,5.0,9.0,53,0.00,,,0.00,Wunderground v.1.15,2013-03-25 23:05:00,
2013-03-25 19:10:00,48.3,32.4,29.71,NW,321,5.0,18.0,54,0.00,,,0.00,Wunderground v.1.15,2013-03-25 23:10:00,
2013-03-25 19:15:00,48.3,31.0,29.71,North,349,6.0,18.0,51,0.00,,,0.00,Wunderground v.1.15,2013-03-25 23:15:00,
2013-03-25 19:20:00,48.1,31.3,29.72,WNW,294,8.0,18.0,52,0.00,,,0.00,Wunderground v.1.15,2013-03-25 23:20:00,
2013-03-25 19:25:00,47.9,32.0,29.72,WNW,300,8.0,18.0,54,0.00,,,0.00,Wunderground v.1.15,2013-03-25 23:25:00,
2013-03-25 19:30:00,47.9,31.6,29.72,WNW,291,8.0,8.0,53,0.00,,,0.00,Wunderground v.1.15,2013-03-25 23:30:00,
2013-03-25 19:35:00,47.8,31.5,29.73,NE,56,8.0,18.0,53,0.00,,,0.00,Wunderground v.1.15,2013-03-25 23:35:00,
2013-03-25 19:40:00,47.6,31.8,29.73,NW,323,6.0,18.0,54,0.00,,,0.00,Wunderground v.1.15,2013-03-25 23:40:00,
2013-03-25 19:45:00,47.4,32.0,29.74,NW,311,5.0,18.0,55,0.00,,,0.00,Wunderground v.1.15,2013-03-25 23:45:00,
2013-03-25 19:50:00,47.3,31.9,29.74,NW,304,5.0,5.0,55,0.00,,,0.00,Wunderground v.1.15,2013-03-25 23:50:00,
2013-03-25 19:55:00,47.3,31.9,29.74,NW,313,5.0,18.0,55,0.00,,,0.00,Wunderground v.1.15,2013-03-25 23:55:00,
2013-03-25 20:00:00,47.1,32.6,29.75,NW,314,4.0,19.0,57,0.00,,,0.00,Wunderground v.1.15,2013-03-26 00:00:00,
2013-03-25 20:05:00,47.1,32.2,29.75,WNW,302,5.0,19.0,56,0.00,,,0.00,Wunderground v.1.15,2013-03-26 00:05:00,
2013-03-25 20:10:00,47.1,32.2,29.75,WNW,303,5.0,19.0,56,0.00,,,0.00,Wunderground v.1.15,2013-03-26 00:10:00,
2013-03-25 20:15:00,47.1,31.7,29.75,NW,307,6.0,19.0,55,0.00,,,0.00,Wunderground v.1.15,2013-03-26 00:15:00,
2013-03-25 20:20:00,47.1,31.3,29.76,NW,305,6.0,19.0,54,0.00,,,0.00,Wunderground v.1.15,2013-03-26 00:20:00,
2013-03-25 20:25:00,47.0,32.1,29.76,WNW,291,6.0,19.0,56,0.00,,,0.00,Wunderground v.1.15,2013-03-26 00:25:00,
2013-03-25 20:30:00,46.9,32.4,29.76,NW,307,6.0,19.0,57,0.00,,,0.00,Wunderground v.1.15,2013-03-26 00:30:00,
2013-03-25 20:35:00,46.9,31.6,29.76,WNW,297,7.0,19.0,55,0.00,,,0.00,Wunderground v.1.15,2013-03-26 00:35:00,
2013-03-25 20:40:00,46.8,32.4,29.76,WNW,297,7.0,19.0,57,0.00,,,0.00,Wunderground v.1.15,2013-03-26 00:40:00,
2013-03-25 20:45:00,46.7,32.3,29.77,WNW,297,6.0,19.0,57,0.00,,,0.00,Wunderground v.1.15,2013-03-26 00:45:00,
2013-03-25 20:50:00,46.6,32.6,29.77,WNW,288,6.0,19.0,58,0.00,,,0.00,Wunderground v.1.15,2013-03-26 00:50:00,
2013-03-25 20:55:00,46.5,32.5,29.77,WNW,301,6.0,19.0,58,0.00,,,0.00,Wunderground v.1.15,2013-03-26 00:55:00,
2013-03-25 21:05:00,46.7,31.4,29.78,NNW,331,8.0,11.0,55,0.00,,,0.00,Wunderground v.1.15,2013-03-26 01:05:00,
2013-03-25 21:10:00,46.6,32.6,29.78,WNW,297,7.0,7.0,58,0.00,,,0.00,Wunderground v.1.15,2013-03-26 01:10:00,
2013-03-25 21:15:00,46.5,32.5,29.78,NW,309,6.0,11.0,58,0.00,,,0.00,Wunderground v.1.15,2013-03-26 01:15:00,
2013-03-25 21:20:00,46.5,32.9,29.79,WNW,293,6.0,11.0,59,0.00,,,0.00,Wunderground v.1.15,2013-03-26 01:20:00,
2013-03-25 21:25:00,46.4,32.8,29.79,NW,307,6.0,11.0,59,0.00,,,0.00,Wunderground v.1.15,2013-03-26 01:25:00,
2013-03-25 21:30:00,46.3,32.7,29.79,WNW,299,6.0,6.0,59,0.00,,,0.00,Wunderground v.1.15,2013-03-26 01:30:00,
2013-03-25 21:35:00,46.2,32.7,29.79,WNW,291,5.0,11.0,59,0.00,,,0.00,Wunderground v.1.15,2013-03-26 01:35:00,
2013-03-25 21:40:00,46.1,33.0,29.79,NW,321,4.0,11.0,60,0.00,,,0.00,Wunderground v.1.15,2013-03-26 01:40:00,
2013-03-25 21:45:00,46.1,33.4,29.79,WNW,294,5.0,11.0,61,0.00,,,0.00,Wunderground v.1.15,2013-03-26 01:45:00,
2013-03-25 21:50:00,46.0,33.3,29.80,WNW,303,5.0,11.0,61,0.00,,,0.00,Wunderground v.1.15,2013-03-26 01:50:00,
2013-03-25 21:55:00,46.1,33.0,29.80,WNW,291,6.0,11.0,60,0.00,,,0.00,Wunderground v.1.15,2013-03-26 01:55:00,
2013-03-25 22:00:00,46.1,32.6,29.80,NW,305,7.0,7.0,59,0.00,,,0.00,Wunderground v.1.15,2013-03-26 02:00:00,
2013-03-25 22:05:00,46.1,33.0,29.80,WNW,297,7.0,11.0,60,0.00,,,0.00,Wunderground v.1.15,2013-03-26 02:05:00,
2013-03-25 22:10:00,46.2,33.1,29.80,NW,307,7.0,14.0,60,0.00,,,0.00,Wunderground v.1.15,2013-03-26 02:10:00,
2013-03-25 22:15:00,46.1,32.6,29.81,WNW,300,7.0,14.0,59,0.00,,,0.00,Wunderground v.1.15,2013-03-26 02:15:00,
2013-03-25 22:20:00,46.0,32.5,29.81,WNW,300,6.0,6.0,59,0.00,,,0.00,Wunderground v.1.15,2013-03-26 02:20:00,
2013-03-25 22:25:00,45.7,32.6,29.81,WNW,292,6.0,8.0,60,0.00,,,0.00,Wunderground v.1.15,2013-03-26 02:25:00,
2013-03-25 22:30:00,45.6,32.9,29.81,NW,307,5.0,14.0,61,0.00,,,0.00,Wunderground v.1.15,2013-03-26 02:30:00,
2013-03-25 22:35:00,45.5,32.8,29.81,West,269,6.0,14.0,61,0.00,,,0.00,Wunderground v.1.15,2013-03-26 02:35:00,
2013-03-25 22:40:00,45.2,33.7,29.82,West,280,6.0,14.0,64,0.00,,,0.00,Wunderground v.1.15,2013-03-26 02:40:00,
2013-03-25 22:50:00,45.1,32.4,29.82,WNW,297,7.0,7.0,61,0.00,,,0.00,Wunderground v.1.15,2013-03-26 02:50:00,
2013-03-25 22:55:00,44.9,32.7,29.82,WNW,293,7.0,8.0,62,0.00,,,0.00,Wunderground v.1.15,2013-03-26 02:55:00,
2013-03-25 23:00:00,44.7,32.1,29.82,WNW,297,6.0,6.0,61,0.00,,,0.00,Wunderground v.1.15,2013-03-26 03:00:00,
2013-03-25 23:05:00,44.5,32.3,29.82,WNW,290,6.0,8.0,62,0.00,,,0.00,Wunderground v.1.15,2013-03-26 03:05:00,
2013-03-25 23:10:00,44.3,32.1,29.83,WNW,294,6.0,12.0,62,0.00,,,0.00,Wunderground v.1.15,2013-03-26 03:10:00,
2013-03-25 23:15:00,44.1,32.3,29.83,WNW,282,6.0,12.0,63,0.00,,,0.00,Wunderground v.1.15,2013-03-26 03:15:00,
2013-03-25 23:20:00,44.0,32.2,29.83,North,356,6.0,12.0,63,0.00,,,0.00,Wunderground v.1.15,2013-03-26 03:20:00,
2013-03-25 23:25:00,43.9,31.7,29.83,NW,307,6.0,12.0,62,0.00,,,0.00,Wunderground v.1.15,2013-03-26 03:25:00,
2013-03-25 23:30:00,43.9,31.7,29.83,West,278,7.0,12.0,62,0.00,,,0.00,Wunderground v.1.15,2013-03-26 03:30:00,
2013-03-25 23:35:00,43.9,31.3,29.83,WNW,287,8.0,12.0,61,0.00,,,0.00,Wunderground v.1.15,2013-03-26 03:35:00,
2013-03-25 23:40:00,43.9,31.3,29.83,NW,311,9.0,12.0,61,0.00,,,0.00,Wunderground v.1.15,2013-03-26 03:40:00,
2013-03-25 23:45:00,43.8,31.2,29.83,NW,311,9.0,12.0,61,0.00,,,0.00,Wunderground v.1.15,2013-03-26 03:45:00,
2013-03-25 23:50:00,43.7,31.1,29.83,NW,307,8.0,12.0,61,0.00,,,0.00,Wunderground v.1.15,2013-03-26 03:50:00,